[Date Prev][Date Next][Thread Prev][Thread Next] - [Date Index][Thread Index][Author Index]

2 Line ISS Keps 6-30



ISS
1 25544U 98067A   01181.26004630  .00036662  00000-0  39288-3 0  1507
2 25544  51.5720  22.5597 0016451 223.8910 111.1575 15.63298228149117


----
Via the sarex mailing list at AMSAT.ORG courtesy of AMSAT-NA.
To unsubscribe, send "unsubscribe sarex" to Majordomo@amsat.org



AMSAT Top AMSAT Home